Theta_e
298 298 298 298 298 298 298 298 298 298 298 297 295 295 295 294 293 295 295 295 296 297 297 298 300 299 302 305 305 302 305 307 308 309 309 310 311 310 311 311 311 313 313 313 312 313 312 308 307 308 305 306 304 303
300 298 298 298 298 297 297 298 298 298 298 297 296 295 294 293 293 295 295 295 296 296 297 299 298 298 298 299 304 303 303 304 305 308 307 307 308 308 309 309 309 310 309 310 310 309 308 306 307 307 304 304 304 304
300 299 298 298 298 298 298 298 298 297 297 296 295 294 293 293 295 296 295 295 296 297 297 297 299 298 298 302 304 305 303 304 305 304 304 306 307 305 307 307 306 306 308 308 307 305 306 306 308 307 306 305 304 304
300 299 298 298 298 298 298 298 297 297 296 295 294 293 293 293 295 296 295 295 296 296 296 299 300 301 303 304 305 304 305 303 303 303 304 306 306 305 304 305 305 304 305 304 304 303 305 306 307 307 306 305 305 303
299 298 298 298 297 298 298 297 296 296 295 294 294 294 294 295 296 296 295 296 296 297 300 301 302 302 303 303 304 305 303 302 301 303 303 304 304 305 304 304 302 303 303 304 304 304 306 304 306 305 305 305 305 305
299 299 298 297 298 297 296 296 295 295 294 294 294 295 294 295 296 295 294 294 295 297 299 303 301 303 303 301 301 302 301 299 299 300 300 300 301 300 301 304 302 303 303 304 304 304 304 304 304 304 303 303 303 302
298 298 298 296 296 296 295 294 294 293 293 294 295 295 294 295 294 294 294 296 295 296 301 302 302 302 302 299 298 299 298 298 298 298 299 299 299 299 295 300 301 302 302 303 303 303 305 303 303 304 303 302 303 303
295 295 296 295 295 294 293 293 292 292 294 294 294 293 293 292 293 292 293 297 297 298 300 301 302 301 300 297 298 297 297 297 297 296 295 298 297 293 297 299 300 300 301 301 302 302 302 303 302 303 302 300 301 300
295 294 294 294 293 292 292 292 293 295 294 293 292 292 290 292 295 298 298 299 298 299 300 298 299 299 297 297 296 299 298 293 297 292 297 297 295 300 299 298 299 301 302 302 302 301 302 302 303 302 301 300 300 299
294 293 293 293 293 292 292 293 294 293 295 295 295 294 295 295 298 297 296 296 296 297 299 298 297 299 296 290 295 300 299 299 299 296 297 298 298 299 299 300 300 301 302 302 302 302 301 301 302 301 300 299 299 298
292 292 292 292 292 292 293 294 294 295 296 296 295 296 297 297 297 294 295 296 296 296 296 297 297 298 297 296 295 294 297 293 300 298 298 300 302 301 300 299 300 300 301 302 301 301 301 300 301 299 297 296 295 294
292 292 292 293 293 294 294 295 295 296 296 296 296 296 297 296 294 295 294 296 297 297 296 297 298 298 298 296 295 297 297 298 300 296 302 303 302 304 303 301 300 299 301 301 301 299 299 300 299 297 293 292 289 289
293 293 294 294 294 295 295 296 296 296 296 297 296 295 294 294 292 291 292 296 292 294 293 294 295 297 295 295 295 298 299 299 298 303 302 302 302 300 298 298 296 299 297 295 294 293 292 292 290 290 286 285 286 286
294 294 294 294 294 294 296 296 296 296 297 293 293 288 291 288 292 292 293 292 293 292 294 295 293 296 291 297 294 296 296 300 297 298 304 302 299 295 292 293 293 292 291 291 290 288 288 287 284 285 285 286 286 283
295 295 295 295 296 297 297 298 297 297 296 294 293 291 291 290 292 294 295 291 292 294 295 295 294 296 298 296 297 296 297 298 299 302 302 296 297 293 293 292 292 291 291 290 289 288 286 286 286 287 287 287 287 286
295 295 296 296 297 297 296 298 298 298 294 295 294 292 289 289 297 297 295 293 293 290 293 294 296 294 294 296 299 295 300 299 297 299 296 295 295 293 292 292 292 291 290 289 288 287 286 287 287 286 286 286 286 286
296 295 294 295 296 297 298 299 298 296 295 296 295 296 295 293 288 295 296 293 293 291 293 296 295 298 295 296 299 297 295 293 294 296 296 295 295 293 292 291 290 290 289 287 287 286 286 286 286 286 285 285 285 285
296 296 296 296 296 296 298 299 294 296 299 295 299 297 295 296 297 295 293 292 296 297 295 298 299 298 293 299 297 295 295 292 295 295 295 294 293 292 291 291 291 290 290 289 289 288 286 285 285 286 285 285 284 284
293 294 295 295 296 297 296 296 296 296 295 292 293 293 293 295 294 292 293 293 296 300 299 299 299 303 298 295 298 293 295 288 292 295 294 293 292 291 290 290 290 290 289 289 289 288 287 287 286 286 285 285 284 283
290 292 294 296 296 296 297 295 297 296 297 295 292 294 295 294 295 294 295 295 296 298 300 299 298 298 298 294 291 292 289 287 292 294 293 292 291 291 290 290 290 289 289 289 289 288 288 288 287 286 285 285 284 283
293 293 295 296 296 296 295 294 295 295 295 296 293 291 293 295 296 296 297 297 298 299 300 298 296 291 292 290 290 287 290 290 290 291 291 292 291 291 291 290 289 289 288 288 288 288 288 288 287 287 285 285 284 284
293 294 295 295 294 294 294 293 294 294 294 294 293 294 295 296 298 297 295 297 299 298 296 292 292 293 291 292 290 293 293 293 293 292 292 291 292 291 291 290 289 287 287 288 288 288 288 288 288 287 286 286 286 285
293 294 294 294 293 289 290 291 295 295 295 294 294 295 293 295 295 294 296 297 297 292 290 292 293 292 291 291 292 292 293 293 292 292 291 291 291 291 290 290 290 289 289 289 289 289 288 288 287 287 287 287 286 285
292 292 287 288 290 286 289 288 293 295 293 295 295 294 295 292 294 295 296 296 293 289 291 292 291 291 291 291 290 291 291 292 291 291 291 291 291 290 290 290 290 291 290 290 289 288 288 287 286 286 286 286 285 285
286 283 283 281 285 291 291 293 293 294 290 291 294 290 290 292 292 293 297 295 294 288 289 291 292 292 291 289 289 290 292 292 291 291 291 291 290 290 289 290 290 290 291 289 287 287 286 286 286 285 285 285 284 284
283 282 283 283 285 287 289 291 286 292 290 290 287 289 288 290 292 292 296 293 295 293 292 292 292 292 292 290 289 288 290 291 291 289 290 291 290 290 289 288 288 288 289 289 288 287 286 286 285 285 285 284 284 284
283 282 289 289 289 290 285 284 289 286 290 286 283 287 287 290 287 291 289 289 290 291 291 292 292 291 291 289 290 290 291 291 290 290 289 290 290 290 289 288 284 287 288 287 287 287 286 285 285 284 285 284 284 284
285 288 284 285 288 287 284 281 283 283 284 290 289 286 288 287 289 286 285 288 288 289 290 292 293 293 291 290 290 289 289 289 288 287 286 286 286 287 287 287 288 288 287 287 286 286 286 285 285 284 284 284 284 284
285 284 287 283 285 285 283 284 283 286 288 287 281 283 286 286 280 280 287 287 288 288 289 288 288 290 288 288 288 288 288 287 285 284 281 282 282 283 284 285 285 286 287 286 286 286 286 286 285 284 283 284 283 283
285 285 285 282 281 282 283 284 281 280 283 284 284 285 285 280 287 289 288 287 285 280 288 289 288 287 287 287 286 286 287 287 287 284 280 281 282 284 284 284 283 284 284 284 284 284 284 285 284 284 283 282 281 280
286 283 287 285 285 283 281 280 279 279 278 278 277 282 284 279 283 288 288 287 286 286 287 288 287 287 286 285 285 283 282 286 286 286 286 286 286 284 283 283 283 282 282 283 283 282 283 283 283 281 281 280 279 279
280 281 281 282 282 283 281 282 280 280 278 278 281 277 281 285 287 278 286 286 285 285 287 288 287 287 288 288 287 286 286 285 285 284 284 284 283 283 282 282 281 281 282 283 282 282 282 281 280 280 279 278 277 277
282 279 279 285 284 282 283 284 283 281 278 279 279 276 279 283 284 276 284 285 286 286 286 287 288 288 288 288 288 287 286 284 284 283 282 282 282 281 281 280 280 281 281 281 282 282 281 280 279 278 276 276 275 274
Wind_Speed
48 44 41 40 37 34 36 38 37 35 36 42 42 37 35 34 32 31 22 26 20 5 5 5 4 7 7 3 6 4 4 1 3 5 3 3 3 1 0 5 8 10 8 4 5 6 8 6 3 7 6 1 4 6
45 42 39 39 35 33 33 33 35 32 36 38 35 35 34 32 31 28 9 26 31 4 3 4 16 22 23 22 6 7 5 6 5 3 3 3 3 3 3 3 3 2 6 5 7 6 6 4 4 1 5 5 4 7
37 39 36 34 30 28 28 30 31 29 36 36 34 33 32 31 29 29 19 20 20 4 4 7 9 14 26 25 4 3 3 6 5 4 4 3 2 3 3 4 1 3 4 4 3 4 5 6 0 3 4 5 7 6
30 31 28 28 27 24 25 28 29 34 34 34 33 31 29 29 27 29 20 22 22 2 3 5 6 5 10 13 8 10 7 8 5 3 3 2 2 4 3 2 4 6 5 4 2 3 1 3 6 6 6 8 7 6
26 25 24 23 20 26 30 30 32 34 33 31 29 27 26 24 25 25 24 17 26 5 4 3 8 15 5 8 15 12 5 6 3 3 2 3 2 3 1 2 3 2 4 4 4 6 5 5 7 7 8 7 8 9
25 24 24 25 32 33 33 33 32 30 28 25 23 22 23 23 24 16 2 20 28 23 3 3 2 4 10 9 9 6 4 4 3 3 2 1 2 3 3 4 5 6 5 6 5 5 6 7 7 7 8 9 8 9
29 29 37 36 35 34 32 30 28 26 24 22 22 21 22 26 26 7 5 5 35 27 3 2 2 2 7 4 3 3 5 2 3 2 1 2 2 3 2 4 5 7 6 5 5 5 5 6 6 8 7 7 7 4
40 38 37 36 34 32 29 27 24 22 21 20 18 17 23 26 18 15 38 17 33 8 2 1 2 3 5 2 2 1 2 2 2 3 1 3 1 2 4 10 5 8 9 8 9 7 7 8 6 8 6 7 7 6
37 36 34 32 30 28 26 24 21 21 18 13 14 16 7 12 6 9 24 35 25 3 2 3 4 4 2 2 2 2 2 2 2 1 2 3 2 4 9 9 11 11 10 12 12 7 7 6 9 8 8 8 7 6
31 30 29 29 27 26 24 23 20 22 15 10 12 5 3 6 35 23 9 3 3 3 2 2 2 2 4 1 1 4 1 2 0 4 1 2 4 12 9 13 11 12 13 6 4 5 6 5 8 8 10 8 9 7
26 25 24 23 22 22 22 19 19 8 1 3 3 3 5 6 8 2 3 3 2 2 1 1 3 5 1 3 3 1 2 1 0 3 3 2 4 5 9 15 14 8 6 7 8 7 6 7 10 9 7 7 7 8
24 22 21 21 22 21 19 14 9 9 4 3 7 3 3 4 4 5 2 2 2 3 1 4 3 3 1 3 3 1 2 1 3 2 1 3 3 6 8 9 9 8 8 7 5 7 5 8 6 10 9 8 7 14
23 22 22 25 22 20 12 13 9 12 9 4 4 4 3 3 6 4 2 2 1 1 2 2 1 3 2 3 3 3 3 4 1 2 3 3 3 5 7 6 11 9 12 10 10 8 12 12 15 13 9 15 20 18
23 21 18 18 15 8 9 12 9 9 6 3 2 5 2 4 1 3 4 4 4 3 4 4 2 3 2 3 3 4 4 2 2 3 5 2 1 3 5 7 10 11 11 12 10 9 12 12 10 16 19 19 20 16
23 17 15 10 9 8 13 11 8 7 3 3 3 2 2 2 2 3 3 2 2 1 4 3 2 2 1 3 1 2 2 3 5 4 2 3 4 4 4 5 8 7 7 8 8 9 9 12 11 12 15 15 18 18
6 8 12 14 14 15 14 13 3 2 2 2 3 3 2 3 3 3 4 3 2 2 2 3 2 3 2 3 3 6 5 5 4 2 2 3 4 4 5 4 6 6 7 7 8 10 11 10 10 11 14 13 13 12
7 2 7 14 16 12 5 2 2 2 2 3 0 1 2 2 3 2 2 3 2 3 2 3 4 7 1 1 3 4 5 3 3 2 2 2 5 5 5 5 5 6 7 8 10 11 11 14 15 12 7 10 11 10
5 6 11 18 23 12 4 1 2 1 3 2 2 1 2 2 1 2 3 2 1 1 2 3 2 3 4 4 3 3 2 1 2 2 2 5 6 6 5 7 7 8 8 10 11 10 12 11 7 5 10 12 11 10
9 10 11 14 12 3 2 3 2 2 3 2 2 2 2 2 2 2 2 2 2 1 2 3 3 3 3 2 3 2 2 2 3 1 2 4 7 6 7 9 9 8 9 8 8 7 9 10 9 12 13 11 8 10
10 9 8 6 6 2 2 3 1 1 2 3 0 1 2 3 2 2 2 2 3 2 2 3 3 3 2 2 3 3 3 3 5 5 2 2 6 9 7 9 5 10 9 9 8 9 9 8 10 13 14 14 13 11
4 4 4 2 2 1 2 2 2 3 2 2 1 2 2 0 2 2 2 2 3 2 2 2 2 2 4 1 2 2 4 5 4 4 4 4 4 8 8 9 11 9 6 5 3 6 9 7 12 14 14 14 15 15
3 7 3 3 1 2 2 3 2 3 1 2 0 2 3 2 2 2 2 2 2 3 3 3 3 3 2 2 1 3 7 8 7 5 8 11 5 4 5 8 9 4 6 8 9 8 10 12 13 14 14 13 14 16
3 3 2 2 0 2 5 4 0 2 1 2 1 2 2 2 2 1 2 2 2 3 3 2 4 4 4 4 6 5 7 7 3 3 5 6 8 10 10 11 14 8 4 8 13 13 12 14 15 14 13 11 12 14
2 0 2 1 1 3 3 3 2 2 3 1 1 3 2 2 2 1 3 2 2 0 1 3 5 4 2 4 2 2 4 8 6 7 10 9 4 4 12 12 14 13 12 13 14 14 13 14 14 13 12 13 14 15
4 5 4 4 3 1 1 2 2 2 2 2 1 3 3 2 0 2 3 1 1 2 1 3 3 5 4 2 1 1 6 11 4 4 7 11 8 9 7 9 11 10 10 14 11 12 12 13 12 11 12 14 12 14
1 3 3 3 2 2 2 2 2 2 1 2 3 2 2 1 2 4 1 3 2 1 2 3 4 3 2 2 3 2 6 10 11 2 5 13 14 9 5 5 3 5 11 12 13 12 13 14 13 12 13 14 12 15
1 3 2 2 1 1 3 2 1 2 2 3 3 1 1 2 4 1 1 1 2 3 9 8 8 3 3 3 9 10 12 14 14 9 11 13 11 11 14 8 4 11 15 11 12 12 14 14 13 11 10 11 12 14
3 1 2 3 1 1 2 2 2 3 3 2 2 1 3 4 3 2 3 3 4 8 10 3 7 9 13 16 18 18 15 17 18 18 16 11 7 6 6 6 4 7 16 14 12 10 11 13 14 12 12 12 10 10
1 2 2 3 1 1 3 5 3 2 1 2 3 3 3 2 2 2 5 7 5 4 5 2 3 11 14 19 19 18 21 21 8 4 4 2 1 3 6 8 8 9 14 13 10 10 9 11 13 13 12 11 11 10
2 1 1 1 3 4 4 4 3 3 2 3 2 2 3 3 8 12 11 10 8 5 9 8 7 8 7 9 8 10 12 14 7 6 4 3 6 9 11 9 9 9 8 8 8 9 7 6 13 13 15 15 13 16
1 1 1 3 3 3 4 3 2 1 1 3 2 4 5 3 5 13 21 21 14 11 6 6 10 13 9 8 6 4 2 10 7 4 4 7 12 16 12 9 8 8 9 8 8 8 10 15 19 20 19 18 17 17
0 3 3 3 4 4 3 2 2 2 2 1 3 2 2 1 3 3 1 7 9 4 10 9 8 8 16 15 16 15 3 12 13 9 10 10 10 9 9 8 8 8 8 10 11 9 13 17 17 18 19 19 19 19
1 2 2 3 4 5 3 2 3 3 2 2 3 2 3 3 4 3 1 4 8 9 8 6 6 13 15 15 14 15 13 13 11 11 10 9 9 7 7 8 8 9 8 7 7 12 18 19 20 20 21 22 21 21
Wind_Direction
233 230 228 232 231 231 228 222 219 219 218 208 201 201 200 203 206 199 207 202 195 229 262 260 248 234 262 258 215 178 106 143 146 196 194 236 176 164 166 185 169 176 170 187 189 216 253 223 328 208 222 278 144 124
223 218 219 221 225 224 224 220 210 213 205 195 191 194 198 202 205 196 200 209 208 222 234 297 252 246 249 282 253 193 169 143 166 157 188 138 202 125 346 216 133 157 183 174 184 205 225 276 210 347 169 154 149 114
208 204 208 211 214 217 210 208 201 199 190 185 187 192 197 200 200 195 196 200 197 227 281 254 226 242 261 240 172 141 257 145 168 161 154 174 135 127 160 238 112 292 177 174 113 235 217 208 68 125 111 122 131 134
180 187 194 195 202 197 200 190 182 181 179 179 186 191 194 197 196 193 192 199 192 170 226 262 249 205 268 217 157 134 232 100 113 103 79 109 143 190 196 254 200 203 149 179 248 286 265 235 169 165 138 117 109 134
155 160 168 175 177 173 169 164 169 168 172 178 181 185 190 191 191 191 203 205 204 202 225 215 190 220 191 188 127 130 147 117 114 88 100 180 177 122 168 2 264 202 176 151 221 220 199 218 201 193 173 187 178 162
134 142 140 146 148 146 150 153 156 161 166 168 171 179 180 180 181 158 192 230 218 218 250 176 197 163 112 96 71 77 67 58 76 116 175 241 293 118 154 203 233 211 188 178 193 199 206 211 198 171 171 177 174 173
113 123 128 128 131 133 137 142 148 156 160 163 166 171 178 178 182 180 196 249 202 209 243 169 87 74 119 80 25 26 29 49 96 117 135 168 257 106 125 213 209 202 192 203 202 220 221 165 204 207 166 159 142 138
99 107 113 117 124 130 135 139 143 149 152 155 168 185 193 204 203 233 237 270 179 188 291 68 98 103 178 103 74 21 65 41 1 149 82 169 328 86 239 237 218 242 272 276 256 208 226 200 189 182 155 146 146 147
100 106 112 118 121 125 129 132 134 138 153 195 194 179 181 202 179 151 172 161 158 148 197 179 143 176 108 111 116 85 83 51 313 86 239 120 215 220 230 215 210 215 199 219 230 209 213 204 193 181 158 157 147 173
97 104 109 116 121 124 127 130 128 115 129 165 200 165 176 152 120 109 113 148 141 238 231 113 109 124 104 76 77 147 155 143 194 234 124 171 252 247 245 230 224 217 215 181 156 242 220 192 183 172 177 169 166 169
95 102 107 112 115 119 125 121 126 118 319 318 17 35 346 32 143 137 86 121 222 48 19 135 137 136 331 108 153 174 166 217 5 271 132 251 264 256 270 242 229 217 206 200 212 233 221 186 179 164 142 139 140 140
91 96 99 105 110 116 118 108 10 348 360 68 114 91 19 28 39 74 2 8 72 186 176 114 153 121 95 108 99 90 141 105 249 149 168 250 266 342 343 342 244 196 155 136 128 116 109 96 125 129 125 125 110 124
87 90 98 102 108 111 75 35 52 72 353 340 33 34 38 337 58 109 173 313 15 167 197 132 111 124 41 61 74 111 146 217 132 184 233 238 307 344 341 8 25 96 106 101 89 82 90 88 87 109 106 113 121 117
82 84 95 108 114 94 60 40 31 346 355 35 65 9 94 337 307 188 176 187 226 150 137 118 88 135 178 106 142 135 218 173 259 225 231 202 164 341 14 31 77 76 80 89 84 83 88 96 88 102 117 127 121 115
66 81 75 67 48 41 15 10 350 340 356 19 34 356 357 266 26 15 348 0 321 117 109 79 44 102 70 102 181 111 109 234 216 234 218 166 137 108 83 92 95 86 87 86 90 93 94 97 106 106 113 116 119 121
21 11 21 21 359 335 328 330 322 335 15 45 32 43 337 51 324 338 348 308 292 84 90 66 113 65 259 162 143 210 179 217 240 207 212 133 113 123 126 101 94 101 105 106 103 105 108 110 110 112 118 121 127 135
84 82 356 357 358 346 323 325 8 51 65 346 193 191 172 184 204 230 217 248 270 69 167 125 143 199 116 190 220 191 204 213 183 167 126 127 126 124 110 104 103 104 106 112 119 117 116 119 121 114 113 129 140 146
7 2 345 348 350 348 329 293 83 73 253 238 270 167 218 218 185 211 231 239 150 184 132 196 158 172 202 198 237 201 163 201 65 110 133 122 116 126 148 149 142 128 121 122 126 125 131 133 130 129 133 143 141 145
296 305 317 330 351 4 342 300 139 241 249 208 215 209 179 207 223 230 248 275 267 273 190 158 183 234 224 220 190 173 131 167 155 123 108 120 134 142 160 159 149 129 131 133 136 143 157 163 162 155 153 153 144 152
283 279 297 311 341 345 296 280 174 210 263 233 59 277 196 213 188 192 178 218 227 204 210 198 218 169 212 231 205 155 162 161 139 156 127 124 145 146 170 168 154 147 142 151 158 160 157 158 162 163 165 168 166 168
263 231 196 206 191 236 263 288 271 217 271 224 223 114 274 227 230 192 207 190 191 219 218 215 185 222 179 191 207 132 144 155 169 159 172 155 154 149 159 156 152 151 154 158 163 171 170 169 174 180 179 183 190 191
255 182 207 216 149 248 250 241 235 286 282 265 57 188 271 276 233 228 165 229 239 211 203 182 177 171 137 173 155 160 171 179 174 136 132 132 156 165 168 163 157 165 175 181 175 176 188 193 188 187 186 191 200 196
195 220 249 151 29 29 260 351 297 249 230 268 25 290 260 241 232 84 260 222 243 220 196 149 137 135 149 153 136 136 160 149 134 133 142 146 150 155 152 163 177 169 175 190 197 188 185 188 181 180 181 184 191 187
252 172 96 202 128 253 350 332 294 289 350 330 237 275 271 242 140 248 255 244 270 11 74 118 128 118 91 136 136 169 160 172 129 125 149 144 147 157 171 177 187 193 194 185 181 180 181 182 180 181 190 191 189 183
69 297 89 313 313 41 310 289 288 335 289 258 288 301 296 21 293 252 236 349 22 12 52 128 148 161 160 142 123 136 167 160 146 151 164 160 137 133 143 175 177 182 188 171 160 168 173 183 183 191 197 193 188 193
88 266 115 209 289 110 259 270 275 261 246 288 261 289 18 48 286 255 19 355 16 117 172 183 174 158 156 149 153 166 180 171 166 115 165 178 165 159 152 148 146 179 184 190 182 173 176 188 194 196 200 204 209 206
16 299 277 228 131 17 346 312 274 138 257 239 262 353 18 265 255 272 321 358 330 343 325 274 194 173 166 160 168 174 172 172 177 170 155 159 172 193 191 178 186 196 187 192 198 197 190 191 195 202 208 208 214 217
206 87 130 286 357 49 189 303 254 231 238 264 63 334 208 214 248 238 220 259 314 328 335 243 191 199 179 175 166 145 136 140 134 133 123 108 112 136 143 146 151 198 190 190 193 196 205 205 202 202 207 206 212 208
298 277 95 303 291 293 222 199 234 245 226 105 158 262 256 240 216 205 239 238 256 275 304 346 108 167 151 155 150 145 149 151 136 135 144 147 140 209 177 183 188 170 175 178 188 201 204 216 214 209 205 203 192 193
301 94 19 295 175 240 242 188 223 243 233 189 188 300 294 291 270 272 224 207 206 212 226 207 167 152 151 147 139 146 169 181 190 170 174 196 210 186 178 180 183 190 193 196 201 216 209 217 195 177 167 159 160 158
180 93 263 241 259 253 233 236 264 217 218 229 232 223 255 265 292 253 232 234 229 223 213 188 175 177 153 145 151 146 149 183 191 199 231 193 169 163 170 178 186 191 198 194 191 202 205 178 170 160 155 154 156 155
109 207 190 267 278 283 345 207 236 226 281 265 260 211 314 185 249 287 226 199 198 203 215 206 177 186 201 208 207 196 205 190 172 162 154 153 155 165 176 181 189 192 206 203 179 187 181 163 147 146 147 149 153 150
309 316 270 280 314 322 312 41 343 291 312 274 273 226 199 174 242 266 59 225 231 221 214 209 216 216 203 206 211 203 188 167 174 173 170 171 173 176 182 183 182 187 190 181 189 177 160 151 145 145 144 145 146 145